Flag for Guatemala Weather past 2 weeks in Guatemala, Guatemala

Now
68 °F

Scattered clouds.


Feels Like: 68 °F
Forecast: 59 / 79 °F
Wind: 14 mph from North

Location: Guatemala Aeropuertola Aurora

Current Time: Jul 25, 2014 at 10:47:29 AM

Latest Report: Jul 25, 2014 at 10:00 AM


Visibility: N/A

Pressure: 30.33 "Hg

Humidity: 73%

Dew point: 59 °F

Location of GuatemalaLocation

Historic Weather in Guatemala — Graph

°F

Guatemala temperature yesterday

Maximum temperature yesterday: 81 °F (at 3:00 PM)
Minimum temperature yesterday: 63 °F (at 4:00 AM)
Average temperature yesterday: 70 °F

Past Weeks' High & Low Weather Summary

 TemperatureHumidityPressure
High82 °F (Jul 17, 2:00 PM)100% (Jul 11, 5:00 AM)30.36 "Hg (Jul 11, 5:00 AM)
Low59 °F (Jul 25, 5:00 AM)45% (Jul 24, 3:00 PM)30.18 "Hg (Jul 15, 6:00 PM)
Average69 °F77%30.29 "Hg
* Reported Jul 10 10:00 AM — Jul 25 10:00 AM, Guatemala, Weather by CustomWeather, © 2014

Note: Actual official high and low records may vary slightly from our data, if they occured in-between our weather recording intervals... More about our weather records

Advertising

Guatemala weather history for previous 24 hours

 ConditionsComfort  
Time TempWeatherWind HumidityBarometerVisibility
10:00 AM
Jul 25
68 °FScattered clouds.14 mph73%30.33 "HgN/A
9:00 AM68 °FBroken clouds.16 mph69%30.33 "HgN/A
8:00 AM66 °FPartly sunny.14 mph68%30.33 "HgN/A
7:00 AM63 °FOvercast.14 mph83%30.30 "HgN/A
6:00 AM61 °FPartly sunny.14 mph88%30.30 "HgN/A
5:00 AM59 °FClear.12 mph100%30.30 "Hg10 mi
4:00 AM63 °FClear.14 mph88%30.27 "Hg10 mi
3:00 AM63 °FPassing clouds.14 mph88%30.27 "HgN/A
2:00 AM63 °FClear.12 mph88%30.30 "Hg10 mi
1:00 AM63 °FClear.9 mph88%30.30 "Hg10 mi
12:00 AM64 °FClear.14 mph78%30.33 "Hg10 mi
11:00 PM
Jul 24
66 °FClear.12 mph78%30.33 "Hg10 mi
10:00 PM66 °FClear.14 mph78%30.33 "Hg10 mi
9:00 PM68 °FPassing clouds.14 mph78%30.33 "HgN/A
8:00 PM68 °FPassing clouds.16 mph78%30.30 "HgN/A
7:00 PM72 °FPassing clouds.14 mph65%30.27 "HgN/A
6:00 PM73 °FPartly sunny.14 mph65%30.24 "HgN/A
5:00 PM75 °FScattered clouds.14 mph57%30.21 "HgN/A
4:00 PM79 °FScattered clouds.18 mph48%30.21 "HgN/A
3:00 PM81 °FPassing clouds.16 mph45%30.24 "HgN/A
2:00 PM77 °FScattered clouds.14 mph54%30.24 "HgN/A
1:00 PM79 °FScattered clouds.21 mph48%30.27 "HgN/A
12:00 PM77 °FScattered clouds.21 mph51%30.30 "HgN/A
11:00 AM75 °FScattered clouds.21 mph57%30.30 "HgN/A
10:00 AM73 °FScattered clouds.21 mph61%30.30 "HgN/A
Weather by CustomWeather, © 2014

See weather overviewHow to use our weather pages